LIVE Streaming HD
Get Adobe Flash player
Annunci di Google
SATELLITE
Annuci di Google
Dati meteo stazione (refresh automatico ogni minuto)
Latina(LT) VENTO: VELOCITÀ   PIOGGIA: QTA GIORNO TEMPERATURA: ATTUALE
SPOT: Latina lido
(Hotel Tirreno) Posizione su Googlemap: Latitudine 41.41 Longitudine 12.84
RAFFICA MASSIMA: QTA MENSILE: MASSIMA:
VELOCITÀ MEDIA: QTA ANNUALE: MINIMA:
DIREZIONE: UMIDITÀ: WIND CHILL:
TIPO: DEW POINT:
BEAUFORT: PRESSIONE:
I nostri partner
Latina(LT) nelle ultime ore
Applica filtri in visualizzazione Intervallo delle letture nelle ultime

Ora Direzione Vento Velocita' Vento Media Vento Raffica Max. Temperatura Wind Chill Pioggia Pressione
14:50:24219 °(SW)8.2 Kts9 Kts12.5 Kts15.4 °C9.4 °C0 mm1014.5 Hpa
14:46:08217 °(SW)9 Kts8.2 Kts12.5 Kts15.4 °C9.9 °C0 mm1014.5 Hpa
14:37:07207 °(SSW)8.2 Kts9 Kts12.5 Kts15.3 °C9.3 °C0 mm1014.5 Hpa
14:35:25217 °(SW)3 Kts9 Kts12.5 Kts15.2 °C9.2 °C0 mm1014.5 Hpa
14:31:02205 °(SSW)8.2 Kts8.2 Kts12.5 Kts15.3 °C9.6 °C0 mm1014.6 Hpa
14:25:09211 °(SSW)7.3 Kts8.2 Kts9.9 Kts15.3 °C9.7 °C0 mm1014.7 Hpa
14:20:35217 °(SW)8.2 Kts8.2 Kts9.9 Kts15.2 °C9.6 °C0 mm1014.7 Hpa
14:16:03204 °(SSW)9 Kts7.3 Kts9.9 Kts15.3 °C10 °C0 mm1014.7 Hpa
14:10:13205 °(SSW)7.3 Kts6.4 Kts9.9 Kts15.4 °C10.5 °C0 mm1014.8 Hpa
14:05:22204 °(SSW)7.3 Kts6.4 Kts9.9 Kts15.4 °C10.5 °C0 mm1014.8 Hpa
14:00:26209 °(SSW)7.3 Kts7.3 Kts9.9 Kts15.3 °C10.1 °C0 mm1014.7 Hpa
13:55:25209 °(SSW)8.2 Kts7.3 Kts9.9 Kts15.3 °C10 °C0 mm1014.7 Hpa
13:50:51205 °(SSW)3 Kts7.3 Kts9 Kts15.3 °C10.1 °C0 mm1014.7 Hpa
13:43:59210 °(SSW)5.6 Kts6.4 Kts9 Kts15.4 °C10.5 °C0 mm1014.7 Hpa
13:40:14204 °(SSW)6.4 Kts6.4 Kts9 Kts15.4 °C10.5 °C0 mm1014.9 Hpa
13:33:20205 °(SSW)6.4 Kts5.6 Kts9 Kts15.4 °C10.9 °C0 mm1014.9 Hpa
13:30:18209 °(SSW)6.4 Kts5.6 Kts9 Kts15.4 °C10.9 °C0 mm1014.9 Hpa
13:20:35208 °(SSW)6.4 Kts6.4 Kts9 Kts15.3 °C10.4 °C0 mm1015.1 Hpa
13:20:35208 °(SSW)6.4 Kts6.4 Kts9 Kts15.3 °C10.4 °C0 mm1015.1 Hpa
13:16:00206 °(SSW)7.3 Kts6.4 Kts9 Kts15.3 °C10.4 °C0 mm1015.2 Hpa
13:10:12217 °(SW)5.6 Kts6.4 Kts9 Kts15.3 °C10.4 °C0 mm1015.2 Hpa
13:06:01208 °(SSW)6.4 Kts6.4 Kts9 Kts15.3 °C10.3 °C0 mm1015.2 Hpa
13:01:03212 °(SSW)6.4 Kts6.4 Kts8.2 Kts15.3 °C10.3 °C0 mm1015.2 Hpa
12:54:49209 °(SSW)6.4 Kts6.4 Kts8.2 Kts15.2 °C10.2 °C0 mm1015.3 Hpa